{"data":{"norad_id":47273,"intl_designator":"2020-100R","name":"ONEWEB-0127","alt_names":[],"object_type":"PAYLOAD","status":"ACTIVE","operator":null,"country":"UK","launch_date":"2020-12-18","launch_site_code":"VOSTO","launch_vehicle":null,"mission":null,"orbit_class":"UNKNOWN","rcs_meters":null,"size_class":null,"mass_kg":null,"dimensions":null,"purposes":["comms"],"wikipedia_slug":null,"has_3d_model":false,"image_url":null,"decayed_at":null,"tle_current":{"epoch":"2026-05-25T03:17:54.924864Z","epoch_age_seconds":59060,"freshness":"FRESH","line1":"1 47273U 20100R   26145.13744126 -.00000236  00000+0 -69049-3 0  9995","line2":"2 47273  87.8947 355.2555 0001684  88.6382 271.4939 13.12441363261701","mean_motion":13.12441363,"eccentricity":0.0001684,"inclination_deg":87.8947,"raan_deg":355.2555,"arg_perigee_deg":88.6382,"mean_anomaly_deg":271.4939,"bstar":-0.00069049,"rev_number":26170,"period_min":109.71918750781,"perigee_km":1212.451133564,"apogee_km":1215.0080742362,"semimajor_km":7591.8666039001,"source":"CELESTRAK","updated_at":"2026-05-25T13:38:22.382208Z"}}}